QPF
0.03 0.02 0.00 0.00 0.00 0.00 0.01 0.03 0.03 0.03 0.02 0.00 0.00 0.00 0.00 0.00 0.00 0.00 0.00 0.00 0.00 0.00 0.00 0.00 0.00 0.00 0.00 0.00 0.00 0.00 0.00 0.00 0.00 0.00 0.00 0.00 0.00 0.00 0.00 0.00 0.00 0.00 0.00 0.00 0.00
0.04 0.03 0.01 0.00 0.00 0.00 0.01 0.03 0.04 0.03 0.02 0.00 0.00 0.00 0.00 0.00 0.00 0.00 0.00 0.00 0.00 0.00 0.00 0.00 0.00 0.00 0.00 0.00 0.00 0.00 0.00 0.00 0.00 0.00 0.00 0.00 0.00 0.00 0.00 0.00 0.00 0.00 0.00 0.00 0.00
0.03 0.03 0.02 0.00 0.00 0.00 0.01 0.03 0.04 0.02 0.02 0.00 0.00 0.00 0.00 0.00 0.00 0.00 0.00 0.00 0.00 0.00 0.00 0.00 0.00 0.00 0.00 0.00 0.00 0.00 0.00 0.00 0.00 0.00 0.00 0.00 0.00 0.00 0.00 0.00 0.00 0.00 0.00 0.00 0.00
0.02 0.03 0.02 0.01 0.00 0.00 0.02 0.03 0.03 0.01 0.01 0.00 0.00 0.00 0.00 0.00 0.00 0.00 0.00 0.00 0.00 0.00 0.00 0.00 0.00 0.00 0.00 0.00 0.00 0.00 0.00 0.00 0.00 0.00 0.00 0.00 0.00 0.00 0.00 0.00 0.00 0.00 0.00 0.00 0.00
0.02 0.02 0.02 0.01 0.00 0.00 0.04 0.06 0.02 0.00 0.00 0.00 0.00 0.00 0.00 0.00 0.00 0.00 0.00 0.00 0.00 0.00 0.00 0.00 0.00 0.00 0.00 0.00 0.00 0.00 0.00 0.00 0.00 0.00 0.00 0.00 0.00 0.00 0.00 0.00 0.00 0.00 0.00 0.00 0.00
0.03 0.03 0.03 0.01 0.01 0.00 0.05 0.09 0.03 0.00 0.00 0.00 0.00 0.00 0.00 0.00 0.00 0.00 0.00 0.00 0.00 0.00 0.00 0.00 0.00 0.00 0.00 0.00 0.00 0.00 0.00 0.00 0.00 0.00 0.00 0.00 0.00 0.00 0.00 0.00 0.00 0.00 0.00 0.00 0.00
0.02 0.03 0.03 0.02 0.01 0.01 0.04 0.07 0.03 0.00 0.00 0.00 0.00 0.00 0.00 0.00 0.00 0.00 0.00 0.00 0.00 0.00 0.00 0.00 0.00 0.00 0.00 0.00 0.00 0.00 0.00 0.00 0.00 0.00 0.00 0.00 0.00 0.00 0.00 0.00 0.00 0.00 0.00 0.00 0.00
0.01 0.02 0.04 0.02 0.01 0.02 0.06 0.04 0.02 0.00 0.00 0.00 0.00 0.00 0.00 0.00 0.00 0.00 0.00 0.00 0.00 0.00 0.00 0.00 0.00 0.00 0.00 0.00 0.00 0.00 0.00 0.00 0.00 0.00 0.00 0.00 0.00 0.00 0.00 0.00 0.00 0.00 0.00 0.00 0.00
0.00 0.01 0.03 0.03 0.00 0.04 0.07 0.04 0.01 0.00 0.00 0.00 0.00 0.00 0.00 0.00 0.00 0.00 0.00 0.00 0.00 0.00 0.00 0.00 0.00 0.00 0.00 0.00 0.00 0.00 0.00 0.00 0.00 0.00 0.00 0.00 0.00 0.00 0.00 0.00 0.00 0.00 0.00 0.00 0.00
0.00 0.02 0.04 0.05 0.01 0.05 0.08 0.06 0.03 0.03 0.04 0.01 0.00 0.00 0.00 0.00 0.00 0.00 0.00 0.00 0.00 0.00 0.00 0.00 0.00 0.00 0.00 0.00 0.00 0.00 0.00 0.00 0.00 0.00 0.00 0.00 0.00 0.00 0.00 0.00 0.00 0.00 0.00 0.00 0.00
0.00 0.02 0.04 0.06 0.03 0.06 0.08 0.06 0.07 0.05 0.02 0.00 0.00 0.00 0.00 0.00 0.00 0.00 0.00 0.00 0.00 0.00 0.00 0.00 0.00 0.00 0.00 0.00 0.00 0.00 0.00 0.00 0.00 0.00 0.00 0.00 0.00 0.00 0.00 0.00 0.00 0.00 0.00 0.00 0.00
0.00 0.01 0.04 0.07 0.09 0.05 0.02 0.02 0.01 0.00 0.00 0.00 0.00 0.00 0.00 0.00 0.00 0.00 0.00 0.00 0.00 0.00 0.00 0.00 0.00 0.00 0.00 0.00 0.00 0.00 0.00 0.00 0.00 0.00 0.00 0.00 0.00 0.00 0.00 0.00 0.00 0.00 0.00 0.00 0.00
0.00 0.01 0.03 0.09 0.13 0.07 0.00 0.01 0.00 0.00 0.00 0.00 0.00 0.00 0.00 0.00 0.00 0.00 0.00 0.00 0.00 0.00 0.00 0.00 0.00 0.00 0.00 0.00 0.00 0.00 0.00 0.00 0.00 0.00 0.00 0.00 0.00 0.00 0.00 0.00 0.00 0.00 0.00 0.00 0.00
0.00 0.01 0.02 0.10 0.11 0.04 0.02 0.00 0.00 0.00 0.00 0.00 0.00 0.00 0.00 0.00 0.00 0.00 0.00 0.00 0.00 0.00 0.00 0.00 0.00 0.00 0.00 0.00 0.00 0.00 0.00 0.00 0.00 0.00 0.00 0.00 0.00 0.00 0.00 0.00 0.00 0.00 0.00 0.00 0.00
0.00 0.00 0.02 0.04 0.06 0.02 0.01 0.00 0.01 0.01 0.00 0.00 0.00 0.00 0.00 0.00 0.00 0.00 0.00 0.00 0.00 0.00 0.00 0.00 0.00 0.00 0.00 0.00 0.00 0.00 0.00 0.00 0.00 0.00 0.00 0.00 0.00 0.00 0.00 0.00 0.00 0.00 0.00 0.00 0.00
0.00 0.00 0.02 0.02 0.04 0.01 0.01 0.01 0.01 0.01 0.00 0.00 0.00 0.00 0.00 0.00 0.00 0.00 0.00 0.00 0.00 0.00 0.00 0.00 0.00 0.00 0.00 0.00 0.00 0.00 0.00 0.00 0.00 0.00 0.00 0.00 0.00 0.00 0.00 0.00 0.00 0.00 0.00 0.00 0.00
0.00 0.00 0.01 0.02 0.01 0.01 0.01 0.01 0.00 0.00 0.00 0.00 0.00 0.00 0.00 0.00 0.00 0.00 0.00 0.00 0.00 0.00 0.00 0.00 0.00 0.00 0.00 0.00 0.00 0.00 0.00 0.00 0.00 0.00 0.00 0.00 0.00 0.00 0.00 0.00 0.00 0.00 0.00 0.00 0.00
0.00 0.00 0.01 0.02 0.01 0.00 0.00 0.00 0.00 0.00 0.00 0.00 0.00 0.00 0.00 0.00 0.00 0.00 0.00 0.00 0.00 0.00 0.00 0.00 0.00 0.00 0.00 0.00 0.00 0.00 0.00 0.00 0.00 0.00 0.00 0.00 0.00 0.00 0.00 0.00 0.00 0.00 0.00 0.00 0.00
0.00 0.00 0.01 0.01 0.01 0.00 0.00 0.00 0.00 0.00 0.00 0.00 0.00 0.00 0.00 0.00 0.00 0.00 0.00 0.00 0.00 0.00 0.00 0.00 0.00 0.00 0.00 0.00 0.00 0.00 0.00 0.00 0.00 0.00 0.00 0.00 0.00 0.00 0.00 0.00 0.00 0.00 0.00 0.00 0.00
0.00 0.00 0.00 0.04 0.01 0.00 0.00 0.00 0.00 0.00 0.00 0.00 0.00 0.00 0.00 0.00 0.00 0.00 0.00 0.00 0.00 0.00 0.00 0.00 0.00 0.00 0.00 0.00 0.00 0.00 0.00 0.00 0.00 0.00 0.00 0.00 0.00 0.00 0.00 0.00 0.00 0.00 0.00 0.00 0.00
0.00 0.01 0.02 0.09 0.02 0.00 0.00 0.00 0.00 0.00 0.00 0.00 0.00 0.00 0.00 0.00 0.00 0.00 0.00 0.00 0.00 0.00 0.00 0.00 0.00 0.00 0.00 0.00 0.00 0.00 0.00 0.00 0.00 0.00 0.00 0.00 0.00 0.00 0.00 0.00 0.00 0.00 0.00 0.00 0.00
0.00 0.01 0.02 0.10 0.02 0.00 0.00 0.00 0.00 0.00 0.00 0.00 0.00 0.00 0.00 0.00 0.00 0.00 0.00 0.00 0.00 0.00 0.00 0.00 0.00 0.00 0.00 0.00 0.00 0.00 0.00 0.00 0.00 0.00 0.00 0.00 0.00 0.00 0.00 0.00 0.00 0.00 0.00 0.00 0.00
0.00 0.00 0.02 0.06 0.01 0.00 0.00 0.00 0.00 0.00 0.00 0.00 0.00 0.00 0.00 0.00 0.00 0.00 0.00 0.00 0.00 0.00 0.00 0.00 0.00 0.00 0.00 0.00 0.00 0.00 0.00 0.00 0.00 0.00 0.00 0.00 0.00 0.00 0.00 0.00 0.00 0.00 0.00 0.00 0.00
0.00 0.00 0.01 0.02 0.00 0.00 0.00 0.00 0.00 0.00 0.00 0.00 0.00 0.00 0.00 0.00 0.00 0.00 0.00 0.00 0.00 0.00 0.00 0.00 0.00 0.00 0.00 0.00 0.00 0.00 0.00 0.00 0.00 0.00 0.00 0.00 0.00 0.00 0.00 0.00 0.00 0.00 0.00 0.00 0.00
0.00 0.00 0.00 0.01 0.00 0.00 0.00 0.00 0.00 0.00 0.00 0.00 0.00 0.00 0.00 0.00 0.00 0.00 0.00 0.00 0.00 0.00 0.00 0.00 0.00 0.00 0.00 0.00 0.00 0.00 0.00 0.00 0.00 0.00 0.00 0.00 0.00 0.00 0.00 0.00 0.00 0.00 0.00 0.00 0.00
0.00 0.00 0.00 0.00 0.00 0.00 0.00 0.00 0.00 0.00 0.00 0.00 0.00 0.00 0.00 0.00 0.00 0.00 0.00 0.00 0.00 0.00 0.00 0.00 0.00 0.00 0.00 0.00 0.00 0.00 0.00 0.00 0.00 0.00 0.00 0.00 0.00 0.00 0.00 0.00 0.00 0.00 0.00 0.00 0.00
0.00 0.00 0.00 0.00 0.00 0.00 0.00 0.00 0.00 0.00 0.00 0.00 0.00 0.00 0.00 0.00 0.00 0.00 0.00 0.00 0.00 0.00 0.00 0.00 0.00 0.00 0.00 0.00 0.00 0.00 0.00 0.00 0.00 0.00 0.00 0.00 0.00 0.00 0.00 0.00 0.00 0.00 0.00 0.00 0.00
MSLP
1003.88 1004.76 1005.47 1006.28 1007.03 1007.83 1008.53 1009.30 1009.95 1010.55 1011.20 1011.79 1012.17 1013.25 1013.88 1014.44 1014.13 1014.59 1014.17 1013.52 1013.74 1013.82 1014.04 1014.40 1014.44 1014.86 1015.14 1016.09 1016.38 1016.86 1017.76 1018.09 1017.92 1017.74 1017.04 1016.76 1016.83 1016.97 1017.09 1017.50 1018.07 1018.32 1018.52 1018.67 1019.34
1003.35 1003.99 1004.81 1005.42 1006.34 1007.18 1007.90 1008.76 1009.40 1010.17 1010.94 1011.51 1012.28 1013.30 1013.98 1014.46 1014.68 1014.51 1013.59 1013.42 1013.70 1013.78 1014.12 1014.44 1014.85 1014.87 1015.58 1016.45 1016.68 1017.16 1017.72 1017.65 1017.45 1017.32 1017.28 1016.91 1016.93 1017.06 1017.34 1017.73 1018.10 1018.47 1018.70 1018.89 1019.67
1002.25 1003.18 1004.12 1004.91 1005.77 1006.67 1007.36 1008.19 1008.95 1009.90 1010.70 1011.57 1012.16 1013.07 1013.90 1014.40 1014.73 1013.64 1013.15 1013.81 1013.78 1013.79 1014.03 1014.36 1015.04 1015.36 1016.12 1016.36 1016.88 1017.21 1017.50 1017.53 1017.44 1016.98 1017.12 1017.21 1016.85 1017.00 1017.30 1017.89 1017.59 1017.78 1018.74 1019.13 1019.59
1001.32 1002.49 1003.46 1004.37 1005.27 1006.09 1006.86 1007.63 1008.56 1009.58 1010.70 1011.60 1012.06 1012.83 1013.55 1013.80 1013.76 1012.48 1012.60 1013.59 1013.79 1013.57 1014.12 1014.65 1015.41 1015.83 1016.34 1016.46 1016.67 1017.20 1017.05 1017.00 1016.96 1016.96 1017.01 1017.36 1017.37 1017.08 1017.16 1016.66 1016.69 1017.16 1017.93 1018.78 1019.26
1000.56 1001.89 1002.87 1003.79 1004.74 1005.48 1006.55 1007.26 1008.29 1009.44 1010.47 1011.21 1011.82 1012.67 1013.55 1013.70 1012.93 1012.40 1012.47 1012.93 1013.93 1013.74 1014.26 1014.84 1015.53 1015.67 1016.13 1016.41 1016.64 1016.82 1016.76 1016.72 1016.48 1016.82 1017.06 1017.09 1017.21 1017.32 1016.84 1016.57 1016.83 1017.53 1018.40 1018.58 1018.92
1000.08 1001.17 1002.29 1003.21 1004.31 1005.13 1006.07 1007.14 1008.23 1009.14 1010.26 1010.93 1011.68 1012.52 1012.95 1013.21 1012.47 1012.36 1012.61 1013.28 1013.75 1014.13 1014.55 1014.97 1015.14 1015.15 1015.98 1016.31 1016.56 1016.51 1016.64 1016.77 1017.00 1017.23 1017.24 1017.53 1017.02 1017.22 1016.43 1016.62 1017.37 1017.79 1018.31 1018.56 1018.81
999.22 1000.43 1001.93 1002.87 1003.87 1004.85 1005.46 1006.95 1008.04 1009.07 1010.25 1010.77 1011.68 1012.19 1012.73 1012.53 1012.48 1012.40 1012.70 1012.94 1013.61 1014.06 1014.61 1015.02 1014.97 1014.92 1015.74 1016.48 1016.60 1016.80 1017.29 1017.41 1017.30 1017.29 1017.53 1017.44 1017.43 1016.83 1016.47 1017.09 1017.63 1018.16 1018.51 1018.74 1018.79
999.09 1000.23 1001.60 1002.55 1003.66 1004.62 1005.18 1006.38 1007.71 1009.00 1010.14 1010.78 1011.79 1012.19 1012.61 1012.28 1012.49 1012.77 1012.88 1013.35 1013.93 1014.16 1014.79 1014.97 1014.70 1015.31 1015.90 1016.42 1016.94 1017.36 1017.68 1017.78 1017.38 1017.43 1017.46 1017.80 1017.38 1016.59 1016.60 1017.14 1017.89 1018.39 1018.72 1018.78 1018.68
999.57 1000.21 1001.44 1002.33 1003.36 1004.28 1005.32 1006.30 1007.50 1008.71 1010.19 1011.11 1012.11 1012.43 1012.74 1012.30 1012.57 1012.85 1012.79 1013.15 1013.97 1014.64 1015.08 1015.08 1015.13 1015.80 1016.32 1016.83 1017.79 1017.93 1017.90 1018.07 1017.80 1017.52 1017.45 1017.81 1017.55 1016.58 1016.69 1017.21 1017.73 1018.24 1018.58 1018.70 1018.69
999.37 1000.01 1001.22 1002.11 1003.07 1003.96 1005.16 1006.39 1007.44 1008.75 1010.41 1011.78 1012.29 1013.04 1012.58 1012.17 1012.51 1012.91 1013.10 1013.33 1014.02 1014.88 1015.46 1015.78 1015.97 1016.24 1016.73 1016.97 1017.21 1018.04 1018.33 1017.99 1017.56 1017.76 1017.57 1017.54 1017.27 1017.07 1017.08 1017.49 1017.42 1017.75 1018.31 1018.70 1018.29
1000.50 1000.30 1001.01 1001.87 1002.75 1003.51 1005.12 1005.69 1007.35 1008.57 1009.71 1010.18 1010.60 1011.30 1011.20 1011.82 1012.19 1013.05 1013.17 1013.73 1014.26 1015.09 1015.91 1016.65 1016.54 1015.77 1016.69 1016.88 1017.44 1017.82 1018.27 1018.08 1017.86 1017.75 1017.80 1017.39 1017.30 1016.97 1017.06 1017.70 1017.76 1017.72 1017.99 1018.08 1017.85
1000.95 1000.79 1000.93 1001.81 1002.51 1003.27 1004.47 1004.77 1005.80 1006.08 1008.84 1010.06 1010.42 1010.90 1011.16 1011.24 1012.38 1013.09 1013.05 1013.78 1014.55 1015.33 1016.44 1017.46 1016.24 1016.82 1017.10 1017.18 1017.48 1018.02 1018.46 1018.58 1018.27 1018.04 1018.32 1017.70 1017.32 1016.84 1016.92 1016.94 1016.95 1017.07 1017.40 1017.31 1017.37
1001.00 1001.36 1000.70 1001.63 1002.34 1003.49 1003.70 1004.90 1005.83 1006.30 1008.64 1010.63 1010.51 1010.80 1010.97 1011.34 1012.20 1012.78 1013.13 1013.76 1014.73 1015.85 1016.19 1016.76 1016.78 1017.20 1017.29 1017.42 1017.68 1017.91 1018.45 1018.75 1018.86 1018.53 1018.43 1018.19 1017.12 1016.79 1016.20 1016.25 1016.33 1016.36 1016.23 1016.77 1016.89
1001.08 1001.48 1001.15 1001.68 1002.94 1003.04 1003.93 1004.77 1005.96 1005.69 1008.69 1010.87 1010.71 1010.42 1010.86 1010.95 1012.40 1012.69 1012.97 1013.48 1015.07 1015.88 1016.98 1017.22 1016.85 1016.98 1017.11 1017.19 1017.66 1018.13 1018.38 1018.85 1019.32 1019.60 1019.28 1018.67 1017.06 1015.59 1015.76 1015.60 1015.38 1015.18 1015.73 1015.77 1015.94
1001.26 1001.40 1001.16 1001.71 1001.33 1002.24 1003.11 1004.03 1004.88 1006.20 1007.80 1009.54 1010.52 1009.86 1010.57 1011.04 1011.77 1012.90 1012.77 1013.26 1014.47 1015.27 1016.31 1016.16 1016.56 1017.04 1016.96 1016.42 1017.44 1018.02 1018.05 1019.08 1019.59 1020.17 1020.36 1019.34 1018.77 1015.09 1014.91 1014.65 1013.91 1014.42 1014.86 1014.83 1014.95
1001.50 1001.40 1001.57 1001.93 1001.96 1002.47 1003.45 1004.44 1005.66 1007.20 1008.08 1009.61 1009.34 1009.89 1010.89 1011.56 1011.84 1012.76 1013.00 1013.36 1014.09 1015.16 1015.80 1016.02 1016.10 1016.39 1016.35 1016.87 1017.11 1017.90 1018.56 1019.50 1020.35 1020.87 1020.71 1018.48 1018.50 1015.35 1014.13 1013.11 1013.65 1013.52 1013.68 1013.77 1014.16
1000.93 1001.18 1001.96 1001.58 1000.95 1002.09 1003.26 1004.90 1006.76 1007.72 1008.15 1009.32 1009.00 1009.53 1010.34 1011.78 1012.33 1012.28 1013.00 1013.57 1013.64 1015.01 1015.69 1016.36 1016.38 1016.13 1016.14 1016.81 1017.21 1017.61 1019.29 1020.96 1021.65 1021.66 1019.51 1018.07 1018.38 1014.17 1013.17 1013.06 1012.87 1012.81 1012.91 1013.08 1013.85
1001.52 1001.18 1001.20 1001.36 1000.71 1002.05 1003.06 1005.30 1006.21 1006.00 1007.00 1007.59 1008.02 1009.72 1010.73 1011.52 1012.56 1012.76 1013.48 1013.78 1013.38 1013.84 1015.21 1015.85 1016.39 1015.46 1015.35 1015.62 1016.14 1017.30 1017.96 1018.53 1020.33 1020.95 1019.52 1018.65 1017.02 1013.27 1012.74 1012.12 1012.32 1012.85 1012.97 1013.33 1013.90
1001.36 1001.21 1001.30 1001.28 1001.39 1001.44 1003.37 1004.55 1003.56 1003.76 1005.25 1006.37 1008.51 1009.63 1010.65 1011.21 1011.51 1012.54 1012.39 1011.84 1012.23 1012.47 1013.38 1014.75 1015.23 1015.03 1014.70 1015.02 1015.28 1016.96 1017.44 1017.54 1019.14 1020.95 1020.12 1017.95 1015.70 1013.47 1012.57 1012.41 1012.40 1012.61 1013.28 1013.17 1013.63
1001.75 1001.38 1000.93 1001.43 1001.66 1001.12 1002.86 1002.42 1003.02 1002.79 1004.16 1005.58 1006.69 1007.92 1008.78 1010.05 1010.69 1011.17 1011.57 1010.48 1011.08 1011.72 1012.17 1013.36 1014.73 1015.01 1015.02 1014.90 1015.22 1015.15 1015.96 1017.47 1018.39 1019.95 1019.64 1017.45 1015.64 1013.06 1012.33 1012.23 1011.96 1012.37 1012.63 1012.66 1013.32
1001.92 1001.42 1000.25 1000.83 1001.41 1001.36 1001.36 1001.88 1002.34 1002.39 1002.73 1004.31 1005.61 1006.84 1007.66 1008.69 1009.80 1010.29 1010.13 1010.01 1010.56 1011.59 1012.40 1013.10 1013.66 1015.71 1015.32 1014.66 1014.47 1015.17 1015.35 1016.15 1016.75 1018.11 1018.12 1017.10 1014.40 1012.19 1011.36 1011.47 1011.59 1011.36 1011.72 1012.57 1013.15
1001.59 1001.52 1000.78 1000.29 1000.50 1001.41 1001.47 1001.63 1001.60 1002.51 1002.57 1003.62 1004.56 1005.47 1006.52 1008.08 1009.52 1010.16 1009.48 1009.03 1009.28 1010.62 1011.94 1012.60 1013.52 1015.33 1015.09 1014.62 1014.27 1014.42 1014.40 1014.78 1015.51 1016.39 1016.70 1016.30 1012.88 1011.42 1010.88 1011.08 1011.48 1011.52 1012.10 1012.73 1013.64
1002.11 1002.06 1001.13 1000.89 1000.37 1001.29 1001.94 1001.60 1001.55 1002.06 1002.24 1003.56 1004.41 1004.50 1005.37 1007.27 1009.23 1009.29 1009.10 1009.19 1009.32 1009.86 1010.08 1011.37 1012.80 1014.89 1015.26 1015.36 1014.53 1013.90 1013.78 1013.30 1013.91 1014.73 1014.89 1014.64 1011.61 1010.83 1010.75 1010.98 1011.44 1011.94 1012.45 1013.01 1013.44
1002.61 1002.73 1001.94 1000.94 1000.84 1001.42 1001.88 1001.70 1001.87 1002.01 1002.37 1003.04 1003.78 1003.96 1005.32 1006.83 1007.13 1008.16 1008.84 1009.15 1009.22 1009.32 1009.63 1010.44 1012.13 1013.23 1013.55 1013.16 1013.64 1013.80 1013.81 1013.75 1013.34 1013.77 1013.39 1012.67 1011.27 1010.90 1010.63 1010.77 1011.09 1011.84 1012.37 1013.03 1013.90
1002.64 1002.75 1002.64 1001.65 1001.44 1001.67 1002.11 1001.63 1002.20 1002.12 1002.16 1002.53 1003.31 1003.12 1003.96 1006.21 1007.18 1007.63 1008.52 1009.28 1009.72 1009.56 1009.91 1010.35 1011.83 1012.98 1013.28 1012.90 1012.31 1012.56 1013.12 1013.29 1013.20 1012.62 1012.49 1010.63 1011.03 1010.57 1010.47 1010.43 1010.86 1011.30 1012.33 1012.99 1013.58
1002.57 1003.02 1003.26 1002.52 1002.00 1001.66 1001.60 1001.64 1001.36 1001.89 1002.06 1002.24 1001.95 1002.71 1003.59 1004.52 1004.92 1006.38 1007.43 1008.30 1008.81 1010.59 1010.51 1010.95 1011.88 1012.72 1013.66 1013.36 1012.75 1013.13 1012.44 1012.39 1012.23 1011.71 1011.36 1010.04 1009.43 1009.70 1010.21 1010.40 1010.79 1011.03 1011.83 1012.46 1012.57
1002.71 1003.42 1002.88 1002.24 1001.76 1001.58 1000.79 1000.64 1000.37 1001.23 1002.13 1001.59 1001.96 1002.72 1003.22 1003.72 1004.35 1005.17 1006.30 1007.36 1007.98 1009.00 1010.20 1011.10 1012.20 1013.29 1014.22 1014.18 1013.72 1012.74 1010.68 1011.14 1010.72 1010.35 1009.71 1009.99 1007.44 1009.32 1009.79 1010.10 1009.82 1010.21 1010.89 1011.16 1011.24
Thickness
5570 5573 5580 5586 5596 5603 5610 5615 5620 5626 5631 5634 5638 5635 5639 5641 5652 5655 5660 5675 5679 5684 5687 5688 5690 5689 5689 5678 5680 5678 5658 5652 5664 5669 5684 5693 5696 5700 5705 5702 5702 5704 5703 5708 5704
5563 5569 5574 5581 5589 5596 5603 5608 5614 5619 5623 5626 5622 5622 5626 5632 5638 5644 5665 5670 5672 5677 5679 5679 5676 5682 5674 5670 5671 5661 5653 5660 5672 5678 5678 5690 5692 5694 5698 5698 5701 5701 5702 5704 5701
5564 5566 5569 5575 5581 5588 5596 5601 5605 5610 5615 5617 5617 5617 5620 5625 5626 5646 5659 5659 5665 5671 5675 5677 5672 5672 5666 5668 5665 5661 5653 5663 5667 5680 5681 5684 5691 5692 5691 5692 5699 5702 5698 5700 5701
5562 5564 5564 5569 5576 5581 5589 5594 5598 5601 5605 5606 5609 5612 5615 5621 5623 5651 5655 5653 5657 5666 5665 5664 5661 5659 5656 5655 5665 5657 5665 5667 5671 5677 5677 5678 5684 5690 5691 5703 5714 5713 5709 5704 5703
5559 5559 5560 5563 5570 5578 5581 5586 5590 5593 5596 5597 5602 5605 5607 5610 5625 5644 5648 5651 5651 5659 5657 5655 5652 5655 5653 5654 5656 5658 5664 5668 5675 5672 5674 5679 5681 5683 5691 5705 5707 5707 5703 5705 5703
5545 5552 5554 5559 5561 5569 5575 5578 5581 5587 5587 5589 5594 5597 5602 5604 5626 5636 5641 5643 5646 5647 5646 5648 5649 5658 5648 5649 5651 5660 5664 5666 5665 5667 5670 5669 5680 5687 5700 5700 5698 5702 5701 5703 5702
5547 5550 5550 5553 5556 5562 5569 5569 5575 5578 5577 5582 5584 5589 5593 5603 5618 5626 5634 5640 5639 5637 5635 5642 5648 5653 5648 5641 5649 5651 5647 5650 5654 5659 5662 5666 5665 5680 5698 5694 5694 5695 5696 5698 5700
5539 5543 5544 5548 5550 5552 5563 5565 5568 5569 5568 5573 5573 5580 5584 5601 5606 5614 5622 5625 5628 5631 5628 5634 5644 5640 5639 5640 5639 5637 5640 5634 5650 5649 5657 5660 5650 5683 5688 5689 5688 5688 5689 5693 5699
5528 5540 5538 5543 5545 5547 5552 5558 5561 5560 5555 5560 5561 5569 5573 5591 5597 5606 5615 5618 5619 5619 5621 5629 5633 5628 5630 5623 5619 5621 5623 5626 5636 5647 5652 5650 5653 5678 5680 5683 5686 5685 5687 5690 5693
5526 5536 5534 5539 5541 5543 5546 5548 5552 5545 5539 5540 5547 5552 5568 5582 5591 5597 5603 5610 5608 5608 5608 5611 5612 5611 5612 5619 5613 5613 5619 5629 5641 5645 5645 5646 5650 5667 5675 5673 5685 5684 5682 5683 5692
5511 5523 5527 5533 5538 5541 5540 5538 5532 5531 5532 5546 5560 5564 5574 5577 5583 5585 5593 5594 5596 5594 5590 5591 5596 5611 5611 5619 5619 5612 5614 5625 5630 5640 5636 5643 5648 5661 5667 5661 5668 5679 5679 5685 5692
5500 5515 5524 5527 5532 5537 5537 5543 5543 5549 5531 5542 5552 5559 5567 5576 5572 5576 5587 5581 5582 5581 5580 5574 5594 5602 5606 5612 5613 5608 5603 5604 5616 5628 5621 5631 5633 5650 5655 5663 5668 5677 5677 5683 5688
5494 5504 5519 5521 5526 5526 5540 5539 5536 5545 5533 5526 5538 5546 5556 5565 5564 5569 5577 5575 5574 5568 5577 5579 5587 5591 5597 5598 5600 5602 5600 5600 5602 5611 5617 5620 5628 5640 5656 5659 5666 5670 5680 5680 5682
5486 5495 5509 5512 5514 5524 5528 5535 5536 5545 5519 5510 5525 5535 5544 5556 5550 5562 5568 5570 5561 5561 5559 5563 5578 5583 5582 5591 5592 5587 5596 5597 5594 5591 5591 5607 5601 5638 5651 5654 5665 5677 5672 5681 5685
5476 5488 5500 5506 5522 5525 5532 5536 5536 5536 5533 5515 5512 5535 5539 5549 5554 5548 5560 5563 5555 5559 5559 5570 5569 5571 5578 5596 5588 5586 5593 5584 5582 5572 5570 5592 5587 5634 5644 5651 5675 5674 5672 5680 5687
5469 5480 5490 5497 5509 5519 5522 5524 5520 5501 5502 5499 5517 5519 5529 5538 5547 5541 5551 5556 5557 5554 5558 5561 5569 5570 5580 5579 5584 5580 5575 5572 5562 5556 5552 5600 5591 5614 5644 5670 5667 5672 5678 5684 5689
5467 5475 5481 5494 5514 5514 5514 5506 5484 5496 5508 5499 5514 5530 5536 5521 5530 5538 5541 5538 5544 5537 5541 5549 5556 5568 5571 5568 5570 5572 5555 5538 5537 5526 5578 5588 5571 5640 5651 5654 5663 5669 5676 5682 5679
5456 5471 5482 5492 5508 5508 5507 5494 5493 5515 5512 5515 5528 5529 5524 5525 5522 5523 5526 5532 5541 5551 5538 5542 5541 5561 5569 5571 5565 5560 5560 5548 5523 5525 5581 5565 5576 5644 5643 5656 5658 5653 5659 5662 5664
5450 5465 5477 5489 5498 5506 5495 5498 5518 5532 5519 5520 5519 5518 5504 5525 5521 5518 5534 5552 5556 5551 5552 5536 5544 5555 5565 5569 5571 5545 5543 5566 5540 5460 5517 5558 5594 5626 5631 5642 5648 5650 5648 5656 5655
5437 5458 5477 5481 5488 5503 5495 5522 5515 5531 5529 5532 5526 5534 5530 5528 5516 5521 5534 5560 5560 5554 5558 5551 5541 5549 5553 5558 5556 5557 5566 5544 5526 5513 5504 5560 5581 5623 5635 5638 5648 5645 5648 5655 5651
5429 5453 5473 5478 5481 5488 5500 5519 5517 5528 5540 5530 5518 5522 5536 5534 5527 5531 5541 5550 5555 5537 5545 5540 5543 5527 5538 5545 5551 5548 5545 5546 5551 5525 5535 5554 5583 5613 5636 5638 5641 5653 5651 5648 5646
5423 5443 5460 5471 5479 5473 5485 5506 5521 5517 5533 5532 5530 5529 5541 5535 5511 5528 5531 5556 5557 5548 5539 5537 5524 5498 5523 5540 5546 5552 5554 5559 5545 5544 5524 5531 5583 5620 5624 5623 5625 5637 5632 5627 5626
5411 5422 5444 5458 5467 5466 5477 5502 5513 5514 5528 5525 5525 5540 5538 5535 5510 5513 5529 5540 5545 5548 5550 5536 5513 5465 5503 5527 5537 5540 5547 5564 5564 5535 5543 5539 5595 5609 5609 5612 5615 5618 5614 5613 5615
5401 5419 5426 5443 5459 5462 5472 5489 5506 5512 5516 5526 5523 5536 5532 5526 5532 5528 5522 5529 5534 5545 5546 5548 5519 5519 5532 5549 5535 5537 5538 5542 5551 5542 5557 5540 5595 5596 5609 5609 5613 5608 5607 5602 5601
5388 5398 5404 5442 5453 5453 5465 5488 5491 5502 5511 5515 5520 5540 5537 5514 5522 5518 5514 5515 5517 5530 5532 5537 5529 5503 5525 5538 5543 5538 5537 5533 5533 5552 5540 5584 5569 5585 5596 5602 5605 5603 5592 5592 5594
5383 5386 5395 5410 5428 5451 5460 5468 5498 5500 5502 5512 5525 5531 5525 5522 5541 5508 5516 5513 5521 5508 5518 5513 5494 5503 5498 5519 5524 5514 5530 5531 5535 5546 5551 5574 5578 5590 5587 5586 5587 5592 5589 5590 5595
5374 5377 5388 5410 5426 5439 5464 5483 5497 5504 5491 5523 5522 5526 5526 5535 5542 5540 5532 5523 5523 5523 5519 5508 5484 5475 5476 5501 5501 5508 5534 5535 5546 5555 5565 5552 5603 5576 5577 5579 5590 5590 5586 5592 5598